Regional Weather Roundup
Issued by NWS Spokane, WA

Home | Current Version | Previous Version | Text Only | Print | Product List | Glossary On
Versions: 1 2 3 4 5 6 7 8 9 10 11 12 13 14 15 16 17 18 19 20 21 22 23 24 25 26 27 28 29 30 31 32 33 34 35 36 37 38 39 40 41 42 43 44 45 46 47 48 49 50
000
NZUS01 KOTX 042100
RWROTX
EASTERN WASHINGTON/NORTHERN IDAHO ROUNDUP
NATIONAL WEATHER SERVICE, SPOKANE WA
100 PM PST WED MAR 04 2015

Note: "fair" indicated few or no clouds below 12,000 feet with no
significant weather and/or obstructions to visibility.

...NORTHEAST WASHINGTON AND NORTHERN IDAHO PANHANDLE...

CITY           SKY/WX    TMP DP  RH WIND       PRES   REMARKS
SPOKANE INTL   MOSUNNY   42  14  32 SW9       30.25F
SPOKANE DOWNTO SUNNY     44  14  29 SW10      30.27F
COEUR D ALENE  SUNNY     43  18  36 SW3       30.25F
DEER PARK      PTSUNNY   40  12  32 S7        30.27F

...SOUTHEAST WASHINGTON AND SOUTHERN IDAHO PANHANDLE...

CITY           SKY/WX    TMP DP  RH WIND       PRES   REMARKS
WALLA WALLA    SUNNY     51  10  19 CALM      30.28F
PULLMAN/MOSCOW SUNNY     41  12  30 MISG      30.29F
LOWELL           N/A     46  17  31 S8        30.33F

...COLUMBIA BASIN...

CITY           SKY/WX    TMP DP  RH WIND       PRES   REMARKS
EPHRATA        SUNNY     45  19  35 S5        30.26F
MOSES LAKE     SUNNY     46  17  31 S9        30.28F
TRI CITIES     SUNNY     51  20  29 SE6       30.31F
HERMISTON      SUNNY     51  20  29 CALM      30.30F
PENDLETON      SUNNY     51   7  16 MISG      30.27F

...EAST SLOPES CASCADES...

CITY           SKY/WX    TMP DP  RH WIND       PRES   REMARKS
THE DALLES     SUNNY     50  27  40 CALM      30.29F
YAKIMA         SUNNY     50  22  33 SE6       30.27F
ELLENSBURG     SUNNY     50  22  33 VRB3      30.24F
WENATCHEE      SUNNY     46  19  34 E9        30.25F
OMAK           SUNNY     44   5  20 S8        30.27F

...SOUTHERN BRITISH COLUMBIA...

CITY           SKY/WX    TMP DP  RH WIND       PRES   REMARKS

...WESTERN MONTANA...

CITY           SKY/WX    TMP DP  RH WIND       PRES   REMARKS
MISSOULA       SUNNY     34  13  41 CALM      30.22F

...NEIGHBORING CITIES...

CITY           SKY/WX    TMP DP  RH WIND       PRES   REMARKS
SEATTLE        MOSUNNY   50  25  37 W6        30.29F



USA.gov is the U.S. government's official web portal to all federal, state and local government web resources and services.